ORBCOMM FM06 1 25118U 97084G 26207.05899876 .00000988 00000+0 30459-3 0 9992 2 25118 45.0120 225.5692 0001979 267.2228 121.8027 14.47644850500028 ORBCOMM FM04 1 25159U 98007C 26207.06270450 .00000712 00000+0 28891-3 0 9997 2 25159 107.9632 249.4347 0042059 258.4637 101.1780 14.35798796482179 ORBCOMM FM19 1 25415U 98046C 26207.31334502 .00001075 00000+0 38655-3 0 9994 2 25415 44.9942 57.5697 0003537 135.2880 34.3659 14.39560557462417 ORBCOMM FM20 1 25416U 98046D 26206.98521515 .00000723 00000+0 28277-3 0 9997 2 25416 44.9943 67.4822 0000827 95.2110 264.8833 14.38114015462371 ORBCOMM FM27 1 25481U 98053G 26207.54692121 .00001045 00000+0 37986-3 0 9997 2 25481 45.0043 148.3969 0001723 336.3453 23.7316 14.39203536455909 ORBCOMM FM32 1 25982U 99065C 26207.35755895 .00000662 00000+0 26777-3 0 9994 2 25982 45.0169 347.8239 0006573 242.7281 117.2898 14.37180857392729 ORBCOMM FM109 1 40086U 14040A 26207.20419225 .00000230 00000+0 84875-4 0 9999 2 40086 47.0030 267.0148 0000908 358.6741 1.4143 14.58877982640049 ORBCOMM FM110 1 41182U 15081D 26207.61950914 .00000897 00000+0 22563-3 0 9997 2 41182 47.0009 174.9870 0003841 266.5438 93.5009 14.58935002563382 ORBCOMM FM118 1 41183U 15081E 26207.24315268 .00000738 00000+0 19219-3 0 9992 2 41183 47.0028 177.1082 0003378 231.5193 128.5390 14.58917598563437 ORBCOMM FM112 1 41184U 15081F 26207.38386165 .00000790 00000+0 20298-3 0 9999 2 41184 46.9991 84.8884 0003008 19.1780 340.9219 14.58953772564672 ORBCOMM FM113 1 41185U 15081G 26207.63584853 .00000469 00000+0 13528-3 0 9993 2 41185 47.0008 84.0943 0001529 10.7926 349.2993 14.58892493564692 ORBCOMM FM108 1 41187U 15081J 26207.39216375 .00000732 00000+0 19086-3 0 9997 2 41187 47.0063 356.8292 0001904 8.0166 352.0750 14.58924326565803 ORBCOMM FM117 1 41188U 15081K 26207.42648140 .00000706 00000+0 18547-3 0 9993 2 41188 47.0026 355.2914 0002304 18.6178 341.4791 14.58911139565852 ORBCOMM FM116 1 41189U 15081L 26207.06412578 .00000562 00000+0 15482-3 0 9993 2 41189 47.0023 86.7943 0001776 257.0238 103.0449 14.58918717564610